Time,TemperatureF,DewpointF,PressureIn,WindDirection,WindDirectionDegrees,WindSpeedMPH,WindSpeedGustMPH,Humidity,HourlyPrecipIn,Conditions,Clouds,dailyrainin,SoftwareType,DateUTC
2013-03-08 00:03:00,30.4,24.3,30.02,WSW,248,0.0,0.0,78,0.00,CLR,,0.00,WeatherDisplay:10.37,2013-03-08 08:03:00,
2013-03-08 00:08:00,30.2,24.5,30.02,WSW,248,0.0,0.0,79,0.00,CLR,,0.00,WeatherDisplay:10.37,2013-03-08 08:08:00,
2013-03-08 00:13:00,30.2,24.5,30.01,WSW,248,0.0,0.0,79,0.00,CLR,,0.00,WeatherDisplay:10.37,2013-03-08 08:13:00,
2013-03-08 00:18:00,30.0,24.3,30.02,WSW,248,0.0,0.0,79,0.00,CLR,,0.00,WeatherDisplay:10.37,2013-03-08 08:18:00,
2013-03-08 00:23:00,30.0,24.3,30.02,WSW,248,0.0,0.0,79,0.00,CLR,,0.00,WeatherDisplay:10.37,2013-03-08 08:23:00,
2013-03-08 00:28:00,29.8,24.1,30.02,WSW,248,0.0,0.0,79,0.00,CLR,,0.00,WeatherDisplay:10.37,2013-03-08 08:28:00,
2013-03-08 00:33:00,29.7,23.9,30.02,WSW,248,0.0,0.0,79,0.00,CLR,,0.00,WeatherDisplay:10.37,2013-03-08 08:33:00,
2013-03-08 00:38:00,29.5,24.1,30.02,WSW,248,0.0,0.0,80,0.00,CLR,,0.00,WeatherDisplay:10.37,2013-03-08 08:38:00,
2013-03-08 00:43:00,29.5,24.1,30.02,WSW,248,0.0,0.0,80,0.00,CLR,,0.00,WeatherDisplay:10.37,2013-03-08 08:43:00,
2013-03-08 00:48:00,29.3,23.9,30.02,WSW,248,0.0,0.0,80,0.00,CLR,,0.00,WeatherDisplay:10.37,2013-03-08 08:48:00,
2013-03-08 00:53:00,29.1,23.7,30.02,WSW,248,0.0,0.0,80,0.00,CLR,,0.00,WeatherDisplay:10.37,2013-03-08 08:53:00,
2013-03-08 00:58:00,29.1,23.7,30.02,WSW,248,0.0,0.0,80,0.00,CLR,,0.00,WeatherDisplay:10.37,2013-03-08 08:58:00,
2013-03-08 01:03:00,28.9,23.5,30.02,WSW,248,0.0,0.0,80,0.00,CLR,,0.00,WeatherDisplay:10.37,2013-03-08 09:03:00,
2013-03-08 01:08:00,28.8,23.4,30.02,WSW,248,0.0,0.0,80,0.00,CLR,,0.00,WeatherDisplay:10.37,2013-03-08 09:08:00,
2013-03-08 01:13:00,28.8,23.4,30.02,WSW,248,0.0,0.0,80,0.00,CLR,,0.00,WeatherDisplay:10.37,2013-03-08 09:13:00,
2013-03-08 01:18:00,28.8,23.4,30.02,WSW,248,0.0,0.0,80,0.00,CLR,,0.00,WeatherDisplay:10.37,2013-03-08 09:18:00,
2013-03-08 01:23:00,28.6,23.2,30.02,WSW,248,0.0,0.0,80,0.00,CLR,,0.00,WeatherDisplay:10.37,2013-03-08 09:23:00,
2013-03-08 01:28:00,28.6,23.2,30.02,WSW,248,0.0,0.0,80,0.00,CLR,,0.00,WeatherDisplay:10.37,2013-03-08 09:28:00,
2013-03-08 01:33:00,28.2,23.1,30.02,WSW,248,0.0,0.0,81,0.00,CLR,,0.00,WeatherDisplay:10.37,2013-03-08 09:33:00,
2013-03-08 01:38:00,28.2,23.1,30.02,WSW,248,0.0,0.0,81,0.00,CLR,,0.00,WeatherDisplay:10.37,2013-03-08 09:38:00,
2013-03-08 01:43:00,28.2,23.1,30.02,WSW,248,0.0,0.0,81,0.00,CLR,,0.00,WeatherDisplay:10.37,2013-03-08 09:43:00,
2013-03-08 01:48:00,28.2,23.1,30.02,WSW,248,0.0,0.0,81,0.00,CLR,,0.00,WeatherDisplay:10.37,2013-03-08 09:48:00,
2013-03-08 01:53:00,28.2,23.1,30.02,WSW,248,0.0,0.0,81,0.00,CLR,,0.00,WeatherDisplay:10.37,2013-03-08 09:53:00,
2013-03-08 01:58:00,28.0,23.0,30.02,WSW,248,0.0,0.0,81,0.00,CLR,,0.00,WeatherDisplay:10.37,2013-03-08 09:58:00,
2013-03-08 02:03:00,27.9,22.8,30.02,WSW,248,0.0,0.0,81,0.00,CLR,,0.00,WeatherDisplay:10.37,2013-03-08 10:03:00,
2013-03-08 02:08:00,27.7,22.6,30.02,WSW,248,0.0,0.0,81,0.00,CLR,,0.00,WeatherDisplay:10.37,2013-03-08 10:08:00,
2013-03-08 02:13:00,27.7,22.9,30.02,WSW,248,0.0,0.0,82,0.00,CLR,,0.00,WeatherDisplay:10.37,2013-03-08 10:13:00,
2013-03-08 02:18:00,27.7,22.9,30.02,WSW,248,0.0,0.0,82,0.00,CLR,,0.00,WeatherDisplay:10.37,2013-03-08 10:18:00,
2013-03-08 02:23:00,27.7,22.9,30.02,WSW,248,0.0,0.0,82,0.00,CLR,,0.00,WeatherDisplay:10.37,2013-03-08 10:23:00,
2013-03-08 02:28:00,27.5,22.7,30.02,WSW,248,0.0,0.0,82,0.00,CLR,,0.00,WeatherDisplay:10.37,2013-03-08 10:28:00,
2013-03-08 02:33:00,27.5,22.7,30.02,WSW,248,0.0,0.0,82,0.00,CLR,,0.00,WeatherDisplay:10.37,2013-03-08 10:33:00,
2013-03-08 02:38:00,27.3,22.5,30.02,WSW,248,0.0,0.0,82,0.00,CLR,,0.00,WeatherDisplay:10.37,2013-03-08 10:38:00,
2013-03-08 02:43:00,27.3,22.5,30.01,WSW,248,0.0,0.0,82,0.00,CLR,,0.00,WeatherDisplay:10.37,2013-03-08 10:43:00,
2013-03-08 02:48:00,27.3,22.5,30.01,WSW,248,0.0,0.0,82,0.00,CLR,,0.00,WeatherDisplay:10.37,2013-03-08 10:48:00,
2013-03-08 02:53:00,27.1,22.4,30.02,WSW,248,0.0,0.0,82,0.00,CLR,,0.00,WeatherDisplay:10.37,2013-03-08 10:53:00,
2013-03-08 02:58:00,27.1,22.4,30.02,WSW,248,0.0,0.0,82,0.00,CLR,,0.00,WeatherDisplay:10.37,2013-03-08 10:58:00,
2013-03-08 03:03:00,27.1,22.4,30.01,WSW,248,0.0,0.0,82,0.00,CLR,,0.00,WeatherDisplay:10.37,2013-03-08 11:03:00,
2013-03-08 03:08:00,27.0,22.2,30.02,WSW,248,0.0,0.0,82,0.00,CLR,,0.00,WeatherDisplay:10.37,2013-03-08 11:08:00,
2013-03-08 03:13:00,27.0,22.2,30.02,WSW,248,0.0,0.0,82,0.00,CLR,,0.00,WeatherDisplay:10.37,2013-03-08 11:13:00,
2013-03-08 03:18:00,26.8,22.3,30.02,WSW,248,0.0,0.0,83,0.00,CLR,,0.00,WeatherDisplay:10.37,2013-03-08 11:18:00,
2013-03-08 03:23:00,26.8,22.3,30.02,WSW,248,0.0,0.0,83,0.00,CLR,,0.00,WeatherDisplay:10.37,2013-03-08 11:23:00,
2013-03-08 03:28:00,26.6,22.1,30.02,WSW,248,0.0,0.0,83,0.00,CLR,,0.00,WeatherDisplay:10.37,2013-03-08 11:28:00,
2013-03-08 03:33:00,26.4,22.0,30.02,WSW,248,0.0,0.0,83,0.00,CLR,,0.00,WeatherDisplay:10.37,2013-03-08 11:33:00,
2013-03-08 03:38:00,26.4,22.0,30.02,WSW,248,0.0,0.0,83,0.00,CLR,,0.00,WeatherDisplay:10.37,2013-03-08 11:38:00,
2013-03-08 03:43:00,26.4,22.0,30.02,WSW,248,0.0,0.0,83,0.00,CLR,,0.00,WeatherDisplay:10.37,2013-03-08 11:43:00,
2013-03-08 03:48:00,26.4,22.0,30.02,WSW,248,0.0,0.0,83,0.00,CLR,,0.00,WeatherDisplay:10.37,2013-03-08 11:48:00,
2013-03-08 03:53:00,26.4,22.0,30.02,WSW,248,0.0,0.0,83,0.00,CLR,,0.00,WeatherDisplay:10.37,2013-03-08 11:53:00,
2013-03-08 03:58:00,26.2,21.8,30.02,WSW,248,0.0,0.0,83,0.00,CLR,,0.00,WeatherDisplay:10.37,2013-03-08 11:58:00,
2013-03-08 04:03:00,26.2,21.8,30.02,WSW,248,0.0,0.0,83,0.00,CLR,,0.00,WeatherDisplay:10.37,2013-03-08 12:03:00,
2013-03-08 04:08:00,26.2,21.8,30.02,WSW,248,0.0,0.0,83,0.00,CLR,,0.00,WeatherDisplay:10.37,2013-03-08 12:08:00,
2013-03-08 04:13:00,26.2,21.8,30.02,WSW,248,0.0,0.0,83,0.00,CLR,,0.00,WeatherDisplay:10.37,2013-03-08 12:13:00,
2013-03-08 04:18:00,26.1,21.9,30.02,WSW,248,0.0,0.0,84,0.00,CLR,,0.00,WeatherDisplay:10.37,2013-03-08 12:18:00,
2013-03-08 04:23:00,25.9,21.7,30.02,WSW,248,0.0,0.0,84,0.00,CLR,,0.00,WeatherDisplay:10.37,2013-03-08 12:23:00,
2013-03-08 04:28:00,25.9,21.7,30.03,WSW,248,0.0,0.0,84,0.00,CLR,,0.00,WeatherDisplay:10.37,2013-03-08 12:28:00,
2013-03-08 04:33:00,25.9,21.7,30.02,WSW,248,0.0,0.0,84,0.00,CLR,,0.00,WeatherDisplay:10.37,2013-03-08 12:33:00,
2013-03-08 04:38:00,25.7,21.5,30.03,WSW,248,0.0,0.0,84,0.00,CLR,,0.00,WeatherDisplay:10.37,2013-03-08 12:38:00,
2013-03-08 04:43:00,25.7,21.5,30.02,WSW,248,0.0,0.0,84,0.00,CLR,,0.00,WeatherDisplay:10.37,2013-03-08 12:43:00,
2013-03-08 04:48:00,25.7,21.5,30.03,WSW,248,0.0,0.0,84,0.00,CLR,,0.00,WeatherDisplay:10.37,2013-03-08 12:48:00,
2013-03-08 04:53:00,25.5,21.4,30.03,WSW,248,0.0,0.0,84,0.00,CLR,,0.00,WeatherDisplay:10.37,2013-03-08 12:53:00,
2013-03-08 04:58:00,25.5,21.4,30.03,WSW,248,0.0,0.0,84,0.00,CLR,,0.00,WeatherDisplay:10.37,2013-03-08 12:58:00,
2013-03-08 05:03:00,25.5,21.4,30.02,WSW,248,0.0,0.0,84,0.00,CLR,,0.00,WeatherDisplay:10.37,2013-03-08 13:03:00,
2013-03-08 05:08:00,25.5,21.4,30.03,WSW,248,0.0,0.0,84,0.00,CLR,,0.00,WeatherDisplay:10.37,2013-03-08 13:08:00,
2013-03-08 05:13:00,25.3,21.2,30.03,WSW,248,0.0,0.0,84,0.00,CLR,,0.00,WeatherDisplay:10.37,2013-03-08 13:13:00,
2013-03-08 05:18:00,25.3,21.2,30.03,WSW,248,0.0,0.0,84,0.00,CLR,,0.00,WeatherDisplay:10.37,2013-03-08 13:18:00,
2013-03-08 05:23:00,25.3,21.2,30.03,WSW,248,0.0,0.0,84,0.00,CLR,,0.00,WeatherDisplay:10.37,2013-03-08 13:23:00,
2013-03-08 05:28:00,25.3,21.2,30.03,WSW,248,0.0,0.0,84,0.00,CLR,,0.00,WeatherDisplay:10.37,2013-03-08 13:28:00,
2013-03-08 05:33:00,25.5,21.4,30.02,WSW,248,0.0,0.0,84,0.00,CLR,,0.00,WeatherDisplay:10.37,2013-03-08 13:33:00,
2013-03-08 05:38:00,25.5,21.4,30.03,WSW,248,0.0,0.0,84,0.00,CLR,,0.00,WeatherDisplay:10.37,2013-03-08 13:38:00,
2013-03-08 05:43:00,25.7,21.5,30.03,WSW,248,0.0,0.0,84,0.00,CLR,,0.00,WeatherDisplay:10.37,2013-03-08 13:43:00,
2013-03-08 05:48:00,25.7,21.5,30.03,WSW,248,0.0,0.0,84,0.00,CLR,,0.00,WeatherDisplay:10.37,2013-03-08 13:48:00,
2013-03-08 05:53:00,25.7,21.8,30.03,WSW,248,0.0,0.0,85,0.00,CLR,,0.00,WeatherDisplay:10.37,2013-03-08 13:53:00,
2013-03-08 05:58:00,25.9,22.0,30.03,WSW,248,0.0,0.0,85,0.00,CLR,,0.00,WeatherDisplay:10.37,2013-03-08 13:58:00,
2013-03-08 06:03:00,25.9,22.0,30.03,WSW,248,0.0,0.0,85,0.00,CLR,,0.00,WeatherDisplay:10.37,2013-03-08 14:03:00,
2013-03-08 06:08:00,25.9,22.0,30.03,WSW,248,0.0,0.0,85,0.00,CLR,,0.00,WeatherDisplay:10.37,2013-03-08 14:08:00,
2013-03-08 06:13:00,26.1,22.2,30.03,WSW,248,0.0,0.0,85,0.00,CLR,,0.00,WeatherDisplay:10.37,2013-03-08 14:13:00,
2013-03-08 06:18:00,26.1,22.2,30.03,WSW,248,0.0,0.0,85,0.00,CLR,,0.00,WeatherDisplay:10.37,2013-03-08 14:18:00,
2013-03-08 06:23:00,26.2,22.3,30.03,WSW,248,0.0,0.0,85,0.00,CLR,,0.00,WeatherDisplay:10.37,2013-03-08 14:23:00,
2013-03-08 06:28:00,26.4,22.5,30.03,WSW,248,0.0,0.0,85,0.00,CLR,,0.00,WeatherDisplay:10.37,2013-03-08 14:28:00,
2013-03-08 06:33:00,26.4,22.5,30.03,WSW,248,0.0,0.0,85,0.00,CLR,,0.00,WeatherDisplay:10.37,2013-03-08 14:33:00,
2013-03-08 06:38:00,26.6,22.7,30.03,WSW,248,0.0,0.0,85,0.00,CLR,,0.00,WeatherDisplay:10.37,2013-03-08 14:38:00,
2013-03-08 06:43:00,26.6,23.0,30.04,WSW,248,0.0,0.0,86,0.00,CLR,,0.00,WeatherDisplay:10.37,2013-03-08 14:43:00,
2013-03-08 06:48:00,26.4,22.8,30.03,WSW,248,0.0,0.0,86,0.00,CLR,,0.00,WeatherDisplay:10.37,2013-03-08 14:48:00,
2013-03-08 06:53:00,26.4,22.8,30.04,WSW,248,0.0,0.0,86,0.00,CLR,,0.00,WeatherDisplay:10.37,2013-03-08 14:53:00,
2013-03-08 06:58:00,26.8,23.2,30.04,WSW,248,0.0,0.0,86,0.00,CLR,,0.00,WeatherDisplay:10.37,2013-03-08 14:58:00,
2013-03-08 07:03:00,27.0,23.3,30.03,WSW,248,0.0,0.0,86,0.00,CLR,,0.00,WeatherDisplay:10.37,2013-03-08 15:03:00,
2013-03-08 07:08:00,27.1,23.5,30.04,WSW,248,0.0,0.0,86,0.00,CLR,,0.00,WeatherDisplay:10.37,2013-03-08 15:08:00,
2013-03-08 07:13:00,27.1,23.5,30.04,WSW,248,0.0,0.0,86,0.00,CLR,,0.00,WeatherDisplay:10.37,2013-03-08 15:13:00,
2013-03-08 07:18:00,27.1,23.5,30.04,WSW,248,0.0,0.0,86,0.00,CLR,,0.00,WeatherDisplay:10.37,2013-03-08 15:18:00,
2013-03-08 07:23:00,27.3,23.7,30.04,WSW,248,0.0,0.0,86,0.00,CLR,,0.00,WeatherDisplay:10.37,2013-03-08 15:23:00,
2013-03-08 07:28:00,27.3,23.7,30.04,WSW,248,0.0,0.0,86,0.00,CLR,,0.00,WeatherDisplay:10.37,2013-03-08 15:28:00,
2013-03-08 07:33:00,27.7,24.3,30.04,WSW,248,0.0,0.0,87,0.00,CLR,,0.00,WeatherDisplay:10.37,2013-03-08 15:33:00,
2013-03-08 07:38:00,27.7,24.3,30.04,WSW,248,0.0,0.0,87,0.00,CLR,,0.00,WeatherDisplay:10.37,2013-03-08 15:38:00,
2013-03-08 07:43:00,27.9,24.5,30.04,WSW,248,0.0,0.0,87,0.00,CLR,,0.00,WeatherDisplay:10.37,2013-03-08 15:43:00,
2013-03-08 07:48:00,27.7,24.3,30.04,WSW,248,0.0,0.0,87,0.00,CLR,,0.00,WeatherDisplay:10.37,2013-03-08 15:48:00,
2013-03-08 07:53:00,27.7,24.3,30.04,WSW,248,0.0,0.0,87,0.00,CLR,,0.00,WeatherDisplay:10.37,2013-03-08 15:53:00,
2013-03-08 07:58:00,27.7,24.3,30.04,WSW,248,0.0,0.0,87,0.00,CLR,,0.00,WeatherDisplay:10.37,2013-03-08 15:58:00,
2013-03-08 08:03:00,28.0,24.7,30.04,WSW,248,0.0,0.0,87,0.00,CLR,,0.00,WeatherDisplay:10.37,2013-03-08 16:03:00,
2013-03-08 08:08:00,28.2,24.8,30.04,WSW,248,0.0,0.0,87,0.00,CLR,,0.00,WeatherDisplay:10.37,2013-03-08 16:08:00,
2013-03-08 08:13:00,28.6,25.2,30.03,WSW,248,0.0,0.0,87,0.00,CLR,,0.00,WeatherDisplay:10.37,2013-03-08 16:13:00,
2013-03-08 08:18:00,29.1,25.7,30.03,WSW,248,0.0,0.0,87,0.00,CLR,,0.00,WeatherDisplay:10.37,2013-03-08 16:18:00,
2013-03-08 08:23:00,29.5,26.1,30.03,WSW,248,0.0,0.0,87,0.00,CLR,,0.00,WeatherDisplay:10.37,2013-03-08 16:23:00,
2013-03-08 08:28:00,30.0,26.6,30.04,WSW,248,0.0,0.0,87,0.00,CLR,,0.00,WeatherDisplay:10.37,2013-03-08 16:28:00,
2013-03-08 08:33:00,30.7,27.3,30.03,WSW,248,0.0,0.0,87,0.00,CLR,,0.00,WeatherDisplay:10.37,2013-03-08 16:33:00,
2013-03-08 08:38:00,31.3,27.9,30.03,WSW,248,0.0,0.0,87,0.00,CLR,,0.00,WeatherDisplay:10.37,2013-03-08 16:38:00,
2013-03-08 08:43:00,31.8,28.1,30.03,WSW,248,0.0,0.0,86,0.00,CLR,,0.00,WeatherDisplay:10.37,2013-03-08 16:43:00,
2013-03-08 08:48:00,33.1,29.6,30.03,WSW,248,0.0,0.0,87,0.00,CLR,,0.00,WeatherDisplay:10.37,2013-03-08 16:48:00,
2013-03-08 08:53:00,34.2,30.4,30.03,WSW,248,0.0,0.0,86,0.00,CLR,,0.00,WeatherDisplay:10.37,2013-03-08 16:53:00,
2013-03-08 08:58:00,34.7,30.7,30.02,WSW,248,0.0,0.0,85,0.00,CLR,,0.00,WeatherDisplay:10.37,2013-03-08 16:58:00,
2013-03-08 09:03:00,35.2,30.9,30.03,WNW,292,3.5,3.5,84,0.00,CLR,,0.00,WeatherDisplay:10.37,2013-03-08 17:03:00,
2013-03-08 09:08:00,35.2,30.9,30.02,WNW,292,0.0,0.0,84,0.00,CLR,,0.00,WeatherDisplay:10.37,2013-03-08 17:08:00,
2013-03-08 09:13:00,35.8,31.4,30.02,WNW,292,0.0,0.0,84,0.00,CLR,,0.00,WeatherDisplay:10.37,2013-03-08 17:13:00,
2013-03-08 09:18:00,36.3,31.9,30.02,WNW,292,3.4,3.4,84,0.00,CLR,,0.00,WeatherDisplay:10.37,2013-03-08 17:18:00,
2013-03-08 09:23:00,36.5,31.8,30.02,WNW,292,1.1,0.0,83,0.00,CLR,,0.00,WeatherDisplay:10.37,2013-03-08 17:23:00,
2013-03-08 09:28:00,36.7,31.7,30.02,WNW,292,0.0,0.0,82,0.00,CLR,,0.00,WeatherDisplay:10.37,2013-03-08 17:28:00,
2013-03-08 09:33:00,37.6,32.6,30.02,WNW,292,0.0,0.0,82,0.00,CLR,,0.00,WeatherDisplay:10.37,2013-03-08 17:33:00,
2013-03-08 09:38:00,38.1,33.1,30.01,WNW,292,0.0,0.0,82,0.53,RA,,0.53,WeatherDisplay:10.37,2013-03-08 17:38:00,
2013-03-08 09:43:00,38.5,33.2,30.01,ENE,68,0.0,0.0,81,0.53,RA,,0.53,WeatherDisplay:10.37,2013-03-08 17:43:00,
2013-03-08 09:48:00,39.0,33.4,30.01,ESE,112,0.0,0.0,80,0.53,,,0.53,WeatherDisplay:10.37,2013-03-08 17:48:00,
2013-03-08 09:53:00,39.2,33.2,30.00,ENE,68,4.6,4.6,79,0.53,CLR,,0.53,WeatherDisplay:10.37,2013-03-08 17:53:00,
2013-03-08 09:58:00,39.6,33.3,30.01,ENE,68,0.0,0.0,78,0.53,CLR,,0.53,WeatherDisplay:10.37,2013-03-08 17:58:00,
2013-03-08 10:03:00,40.3,33.6,30.00,ENE,68,0.0,0.0,77,0.53,CLR,,0.53,WeatherDisplay:10.37,2013-03-08 18:03:00,
2013-03-08 10:09:00,40.8,34.2,30.00,East,90,3.5,3.5,77,0.53,CLR,,0.53,WeatherDisplay:10.37,2013-03-08 18:09:00,
2013-03-08 10:14:00,41.4,34.0,29.99,East,90,0.0,0.0,75,0.53,CLR,,0.53,WeatherDisplay:10.37,2013-03-08 18:14:00,
2013-03-08 10:19:00,41.9,34.6,29.99,SE,135,0.0,0.0,75,0.53,CLR,,0.53,WeatherDisplay:10.37,2013-03-08 18:19:00,
2013-03-08 10:24:00,42.4,34.7,29.99,SE,135,0.0,0.0,74,0.53,CLR,,0.53,WeatherDisplay:10.37,2013-03-08 18:24:00,
2013-03-08 10:29:00,43.0,34.6,29.99,NW,315,3.8,3.8,72,0.53,CLR,,0.53,WeatherDisplay:10.37,2013-03-08 18:29:00,
2013-03-08 10:34:00,43.5,34.7,29.99,NW,315,4.9,4.9,71,0.53,CLR,,0.53,WeatherDisplay:10.37,2013-03-08 18:34:00,
2013-03-08 10:39:00,43.9,35.1,29.99,NNW,338,0.0,0.0,71,0.00,CLR,,0.53,WeatherDisplay:10.37,2013-03-08 18:39:00,
2013-03-08 10:44:00,44.4,34.9,29.99,NNW,338,6.0,6.0,69,0.00,CLR,,0.53,WeatherDisplay:10.37,2013-03-08 18:44:00,
2013-03-08 10:49:00,44.8,34.9,29.98,North,0,2.7,2.7,68,0.00,CLR,,0.53,WeatherDisplay:10.37,2013-03-08 18:49:00,
2013-03-08 10:54:00,45.0,35.0,29.98,West,270,0.0,0.0,68,0.00,CLR,,0.53,WeatherDisplay:10.37,2013-03-08 18:54:00,
2013-03-08 10:59:00,45.7,35.0,29.98,West,270,0.0,0.0,66,0.00,CLR,,0.53,WeatherDisplay:10.37,2013-03-08 18:59:00,
2013-03-08 11:04:00,46.0,34.9,29.98,West,270,1.1,1.1,65,0.00,CLR,,0.53,WeatherDisplay:10.37,2013-03-08 19:04:00,
2013-03-08 11:09:00,46.2,35.1,29.98,NNE,22,6.0,6.0,65,0.00,CLR,,0.53,WeatherDisplay:10.37,2013-03-08 19:09:00,
2013-03-08 11:14:00,46.6,35.4,29.98,NNE,22,1.1,1.1,65,0.00,CLR,,0.53,WeatherDisplay:10.37,2013-03-08 19:14:00,
2013-03-08 11:19:00,46.9,35.0,29.97,East,90,3.5,3.5,63,0.00,CLR,,0.53,WeatherDisplay:10.37,2013-03-08 19:19:00,
2013-03-08 11:24:00,46.9,34.6,29.97,East,90,0.0,0.0,62,0.00,CLR,,0.53,WeatherDisplay:10.37,2013-03-08 19:24:00,
2013-03-08 11:29:00,47.3,34.1,29.97,ESE,112,4.6,4.6,60,0.00,CLR,,0.53,WeatherDisplay:10.37,2013-03-08 19:29:00,
2013-03-08 11:34:00,47.3,33.7,29.97,ESE,112,1.6,1.6,59,0.00,CLR,,0.53,WeatherDisplay:10.37,2013-03-08 19:34:00,
2013-03-08 11:39:00,47.3,33.7,29.97,East,90,3.5,3.5,59,0.00,CLR,,0.53,WeatherDisplay:10.37,2013-03-08 19:39:00,
2013-03-08 11:44:00,47.5,33.4,29.96,East,90,4.9,4.9,58,0.00,CLR,,0.53,WeatherDisplay:10.37,2013-03-08 19:44:00,
2013-03-08 11:49:00,47.7,33.2,29.96,East,90,1.6,1.6,57,0.00,CLR,,0.53,WeatherDisplay:10.37,2013-03-08 19:49:00,
2013-03-08 11:54:00,47.8,33.3,29.96,ENE,68,1.3,1.3,57,0.00,CLR,,0.53,WeatherDisplay:10.37,2013-03-08 19:54:00,
2013-03-08 11:59:00,47.8,32.4,29.96,ESE,112,0.0,0.0,55,0.00,CLR,,0.53,WeatherDisplay:10.37,2013-03-08 19:59:00,
2013-03-08 12:04:00,48.4,32.9,29.96,ESE,112,3.5,3.8,55,0.00,CLR,,0.53,WeatherDisplay:10.37,2013-03-08 20:04:00,
2013-03-08 12:09:00,48.4,32.5,29.95,NE,45,1.3,1.3,54,0.00,CLR,,0.53,WeatherDisplay:10.37,2013-03-08 20:09:00,
2013-03-08 12:14:00,49.1,33.2,29.95,North,0,0.0,0.0,54,0.00,CLR,,0.53,WeatherDisplay:10.37,2013-03-08 20:14:00,
2013-03-08 12:19:00,49.3,32.9,29.95,North,0,0.0,0.0,53,0.00,CLR,,0.53,WeatherDisplay:10.37,2013-03-08 20:19:00,
2013-03-08 12:24:00,49.5,33.0,29.95,NE,45,5.8,5.8,53,0.00,CLR,,0.53,WeatherDisplay:10.37,2013-03-08 20:24:00,
2013-03-08 12:29:00,49.6,33.7,29.95,NE,45,5.8,5.8,54,0.00,CLR,,0.53,WeatherDisplay:10.37,2013-03-08 20:29:00,
2013-03-08 12:34:00,49.8,33.4,29.94,WNW,292,4.0,4.0,53,0.00,CLR,,0.53,WeatherDisplay:10.37,2013-03-08 20:34:00,
2013-03-08 12:39:00,50.2,33.7,29.94,South,180,3.5,3.5,53,0.00,CLR,,0.53,WeatherDisplay:10.37,2013-03-08 20:39:00,
2013-03-08 12:44:00,50.4,33.9,29.94,ENE,68,4.5,4.5,53,0.00,CLR,,0.53,WeatherDisplay:10.37,2013-03-08 20:44:00,
2013-03-08 12:49:00,50.4,33.9,29.94,NE,45,3.5,3.5,53,0.00,CLR,,0.53,WeatherDisplay:10.37,2013-03-08 20:49:00,
2013-03-08 12:54:00,50.4,33.4,29.94,East,90,5.8,5.8,52,0.77,RA,,1.30,WeatherDisplay:10.37,2013-03-08 20:54:00,
2013-03-08 12:59:00,50.5,34.0,29.93,ESE,112,6.3,6.3,53,0.77,RA,,1.30,WeatherDisplay:10.37,2013-03-08 20:59:00,
2013-03-08 13:04:00,50.7,33.7,29.93,ESE,112,5.8,5.8,52,0.77,,,1.30,WeatherDisplay:10.37,2013-03-08 21:04:00,
2013-03-08 13:09:00,50.7,33.7,29.93,ESE,112,2.3,2.3,52,0.77,CLR,,1.30,WeatherDisplay:10.37,2013-03-08 21:09:00,
2013-03-08 13:14:00,50.7,33.7,29.93,ESE,112,7.4,7.4,52,0.77,CLR,,1.30,WeatherDisplay:10.37,2013-03-08 21:14:00,
2013-03-08 13:19:00,51.1,33.1,29.93,SSE,158,6.9,6.9,50,0.77,CLR,,1.30,WeatherDisplay:10.37,2013-03-08 21:19:00,
2013-03-08 13:24:00,51.3,33.2,29.92,NE,45,4.6,4.7,50,0.77,CLR,,1.30,WeatherDisplay:10.37,2013-03-08 21:24:00,
2013-03-08 13:29:00,51.3,33.2,29.92,NNW,338,6.0,6.0,50,0.77,CLR,,1.30,WeatherDisplay:10.37,2013-03-08 21:29:00,
2013-03-08 13:34:00,51.6,33.1,29.93,WNW,292,0.0,0.0,49,0.77,CLR,,1.30,WeatherDisplay:10.37,2013-03-08 21:34:00,
2013-03-08 13:39:00,51.6,33.1,29.92,WNW,292,0.4,0.4,49,0.77,CLR,,1.30,WeatherDisplay:10.37,2013-03-08 21:39:00,
2013-03-08 13:44:00,51.8,32.2,29.92,WNW,292,5.8,5.8,47,0.77,CLR,,1.30,WeatherDisplay:10.37,2013-03-08 21:44:00,
2013-03-08 13:49:00,52.2,32.0,29.92,NW,315,7.4,7.4,46,0.77,CLR,,1.30,WeatherDisplay:10.37,2013-03-08 21:49:00,
2013-03-08 13:54:00,52.3,31.0,29.92,WNW,292,8.1,8.1,44,0.00,CLR,,1.30,WeatherDisplay:10.37,2013-03-08 21:54:00,
2013-03-08 13:59:00,52.7,30.8,29.91,WNW,292,9.2,9.2,43,0.00,CLR,,1.30,WeatherDisplay:10.37,2013-03-08 21:59:00,
2013-03-08 14:04:00,52.7,30.2,29.92,WNW,292,6.9,6.9,42,0.00,CLR,,1.30,WeatherDisplay:10.37,2013-03-08 22:04:00,
2013-03-08 14:09:00,53.1,30.6,29.91,West,270,7.4,7.4,42,0.00,CLR,,1.30,WeatherDisplay:10.37,2013-03-08 22:09:00,
2013-03-08 14:14:00,53.1,30.6,29.92,West,270,8.1,8.1,42,0.00,CLR,,1.30,WeatherDisplay:10.37,2013-03-08 22:14:00,
2013-03-08 14:19:00,53.2,30.1,29.92,WNW,292,8.1,8.1,41,0.00,CLR,,1.30,WeatherDisplay:10.37,2013-03-08 22:19:00,
2013-03-08 14:24:00,53.2,30.1,29.92,West,270,9.6,9.6,41,0.00,CLR,,1.30,WeatherDisplay:10.37,2013-03-08 22:24:00,
2013-03-08 14:29:00,53.2,30.1,29.92,NNW,338,9.2,9.2,41,0.00,CLR,,1.30,WeatherDisplay:10.37,2013-03-08 22:29:00,
2013-03-08 14:34:00,53.2,30.7,29.92,WNW,292,8.5,8.5,42,0.00,CLR,,1.30,WeatherDisplay:10.37,2013-03-08 22:34:00,
2013-03-08 14:39:00,53.4,29.7,29.92,WNW,292,8.1,8.1,40,0.00,CLR,,1.30,WeatherDisplay:10.37,2013-03-08 22:39:00,
2013-03-08 14:44:00,53.4,29.1,29.91,WNW,292,8.0,8.0,39,0.00,CLR,,1.30,WeatherDisplay:10.37,2013-03-08 22:44:00,
2013-03-08 14:49:00,53.4,28.4,29.92,WNW,292,8.5,8.5,38,0.00,CLR,,1.30,WeatherDisplay:10.37,2013-03-08 22:49:00,
2013-03-08 14:54:00,53.4,28.4,29.92,WNW,292,7.4,7.4,38,0.00,CLR,,1.30,WeatherDisplay:10.37,2013-03-08 22:54:00,
2013-03-08 14:59:00,53.8,29.4,29.92,West,270,6.9,6.9,39,0.00,CLR,,1.30,WeatherDisplay:10.37,2013-03-08 22:59:00,
2013-03-08 15:04:00,53.8,28.7,29.91,WNW,292,8.1,8.1,38,0.00,CLR,,1.30,WeatherDisplay:10.37,2013-03-08 23:04:00,
2013-03-08 15:09:00,53.8,26.7,29.91,West,270,8.1,8.1,35,0.00,CLR,,1.30,WeatherDisplay:10.37,2013-03-08 23:09:00,
2013-03-08 15:14:00,53.8,28.1,29.91,WNW,292,10.4,10.4,37,0.00,CLR,,1.30,WeatherDisplay:10.37,2013-03-08 23:14:00,
2013-03-08 15:19:00,53.6,27.9,29.91,NW,315,12.7,12.7,37,0.61,RA,,1.91,WeatherDisplay:10.37,2013-03-08 23:19:00,
2013-03-08 15:24:00,53.4,29.1,29.92,NW,315,9.2,9.2,39,0.61,RA,,1.91,WeatherDisplay:10.37,2013-03-08 23:24:00,
2013-03-08 15:29:00,53.6,29.2,29.92,WNW,292,9.2,9.2,39,0.61,,,1.91,WeatherDisplay:10.37,2013-03-08 23:29:00,
2013-03-08 15:34:00,53.8,30.6,29.92,WNW,292,8.1,8.1,41,0.61,CLR,,1.91,WeatherDisplay:10.37,2013-03-08 23:34:00,
2013-03-08 15:39:00,53.6,30.4,29.91,NW,315,11.5,11.6,41,0.61,CLR,,1.91,WeatherDisplay:10.37,2013-03-08 23:39:00,
2013-03-08 15:44:00,53.4,30.3,29.92,West,270,8.1,8.5,41,0.61,CLR,,1.91,WeatherDisplay:10.37,2013-03-08 23:44:00,
2013-03-08 15:49:00,53.4,30.9,29.91,WNW,292,7.4,7.4,42,0.61,CLR,,1.91,WeatherDisplay:10.37,2013-03-08 23:49:00,
2013-03-08 15:54:00,53.4,30.9,29.92,WNW,292,5.8,5.8,42,0.61,CLR,,1.91,WeatherDisplay:10.37,2013-03-08 23:54:00,
2013-03-08 15:59:00,53.2,31.3,29.92,West,270,5.8,5.8,43,0.61,CLR,,1.91,WeatherDisplay:10.37,2013-03-08 23:59:00,
2013-03-08 16:04:00,53.2,31.3,29.92,West,270,5.8,5.8,43,0.61,CLR,,1.91,WeatherDisplay:10.37,2013-03-09 00:04:00,
2013-03-08 16:09:00,53.2,31.9,29.92,West,270,4.6,5.1,44,0.61,CLR,,1.91,WeatherDisplay:10.37,2013-03-09 00:09:00,
2013-03-08 16:14:00,52.9,31.5,29.91,WNW,292,10.4,10.4,44,0.61,CLR,,1.91,WeatherDisplay:10.37,2013-03-09 00:14:00,
2013-03-08 16:19:00,52.9,31.5,29.92,WNW,292,14.1,14.1,44,0.00,CLR,,1.91,WeatherDisplay:10.37,2013-03-09 00:19:00,
2013-03-08 16:24:00,52.7,31.4,29.92,WNW,292,5.8,5.8,44,0.00,CLR,,1.91,WeatherDisplay:10.37,2013-03-09 00:24:00,
2013-03-08 16:29:00,52.5,31.8,29.92,WNW,292,7.2,7.2,45,0.00,CLR,,1.91,WeatherDisplay:10.37,2013-03-09 00:29:00,
2013-03-08 16:34:00,52.3,31.6,29.92,West,270,4.6,4.6,45,0.00,CLR,,1.91,WeatherDisplay:10.37,2013-03-09 00:34:00,
2013-03-08 16:39:00,52.3,31.6,29.92,West,270,5.8,5.8,45,0.00,CLR,,1.91,WeatherDisplay:10.37,2013-03-09 00:39:00,
2013-03-08 16:44:00,52.2,31.4,29.92,West,270,8.1,8.1,45,0.00,CLR,,1.91,WeatherDisplay:10.37,2013-03-09 00:44:00,
2013-03-08 16:49:00,52.2,32.0,29.92,WNW,292,6.9,6.9,46,0.00,CLR,,1.91,WeatherDisplay:10.37,2013-03-09 00:49:00,
2013-03-08 16:54:00,51.8,31.7,29.93,West,270,5.8,5.8,46,0.00,CLR,,1.91,WeatherDisplay:10.37,2013-03-09 00:54:00,
2013-03-08 16:59:00,51.6,31.5,29.92,WNW,292,4.6,4.6,46,0.00,CLR,,1.91,WeatherDisplay:10.37,2013-03-09 00:59:00,
2013-03-08 17:04:00,51.6,31.5,29.93,WNW,292,8.1,8.1,46,0.00,CLR,,1.91,WeatherDisplay:10.37,2013-03-09 01:04:00,
2013-03-08 17:09:00,51.4,31.3,29.93,WNW,292,5.8,5.8,46,0.00,CLR,,1.91,WeatherDisplay:10.37,2013-03-09 01:09:00,
2013-03-08 17:14:00,50.9,31.4,29.93,West,270,4.6,4.6,47,0.00,CLR,,1.91,WeatherDisplay:10.37,2013-03-09 01:14:00,
2013-03-08 17:19:00,50.7,31.2,29.93,WNW,292,8.1,8.1,47,0.00,CLR,,1.91,WeatherDisplay:10.37,2013-03-09 01:19:00,
2013-03-08 17:24:00,50.5,31.6,29.94,WNW,292,4.0,4.0,48,0.00,CLR,,1.91,WeatherDisplay:10.37,2013-03-09 01:24:00,
2013-03-08 17:29:00,49.8,30.9,29.94,NW,315,3.5,3.5,48,0.00,CLR,,1.91,WeatherDisplay:10.37,2013-03-09 01:29:00,
2013-03-08 17:34:00,49.6,31.2,29.95,NW,315,2.3,0.0,49,0.00,CLR,,1.91,WeatherDisplay:10.37,2013-03-09 01:34:00,
2013-03-08 17:39:00,49.3,30.9,29.95,NW,315,0.0,0.0,49,0.00,CLR,,1.91,WeatherDisplay:10.37,2013-03-09 01:39:00,
2013-03-08 17:44:00,48.7,30.4,29.95,NW,315,0.0,0.0,49,0.00,CLR,,1.91,WeatherDisplay:10.37,2013-03-09 01:44:00,
2013-03-08 17:49:00,48.2,30.4,29.95,NW,315,0.0,0.0,50,0.00,CLR,,1.91,WeatherDisplay:10.37,2013-03-09 01:49:00,
2013-03-08 17:54:00,47.7,29.9,29.96,NW,315,0.0,0.0,50,0.00,CLR,,1.91,WeatherDisplay:10.37,2013-03-09 01:54:00,
2013-03-08 17:59:00,47.1,29.9,29.96,NW,315,0.0,0.0,51,0.00,CLR,,1.91,WeatherDisplay:10.37,2013-03-09 01:59:00,
2013-03-08 18:04:00,46.8,30.0,29.96,NW,315,0.0,0.0,52,0.00,CLR,,1.91,WeatherDisplay:10.37,2013-03-09 02:04:00,
2013-03-08 18:09:00,46.0,29.8,29.97,NW,315,0.0,0.0,53,0.00,CLR,,1.91,WeatherDisplay:10.37,2013-03-09 02:09:00,
2013-03-08 18:14:00,45.1,29.5,29.97,NW,315,0.0,0.0,54,0.00,CLR,,1.91,WeatherDisplay:10.37,2013-03-09 02:14:00,
2013-03-08 18:19:00,44.4,29.2,29.97,NW,315,2.3,0.0,55,0.00,CLR,,1.91,WeatherDisplay:10.37,2013-03-09 02:19:00,
2013-03-08 18:24:00,43.9,29.2,29.97,SE,135,4.7,4.7,56,0.00,CLR,,1.91,WeatherDisplay:10.37,2013-03-09 02:24:00,
2013-03-08 18:29:00,43.5,29.3,29.98,SE,135,5.8,5.8,57,0.00,CLR,,1.91,WeatherDisplay:10.37,2013-03-09 02:29:00,
2013-03-08 18:34:00,43.2,29.4,29.98,SE,135,6.9,6.9,58,0.00,CLR,,1.91,WeatherDisplay:10.37,2013-03-09 02:34:00,
2013-03-08 18:39:00,43.0,29.2,29.98,SE,135,4.6,4.6,58,0.00,CLR,,1.91,WeatherDisplay:10.37,2013-03-09 02:39:00,
2013-03-08 18:44:00,42.6,29.3,29.99,SSE,158,3.5,3.9,59,0.00,CLR,,1.91,WeatherDisplay:10.37,2013-03-09 02:44:00,
2013-03-08 18:49:00,42.1,29.2,29.99,SE,135,4.6,4.6,60,0.00,CLR,,1.91,WeatherDisplay:10.37,2013-03-09 02:49:00,
2013-03-08 18:54:00,41.7,28.8,29.99,SE,135,0.0,0.0,60,0.00,CLR,,1.91,WeatherDisplay:10.37,2013-03-09 02:54:00,
2013-03-08 18:59:00,41.5,29.5,30.00,SE,135,1.1,1.1,62,0.00,CLR,,1.91,WeatherDisplay:10.37,2013-03-09 02:59:00,
2013-03-08 19:04:00,41.4,29.3,30.00,SE,135,4.6,4.6,62,0.00,CLR,,1.91,WeatherDisplay:10.37,2013-03-09 03:04:00,
2013-03-08 19:09:00,41.2,28.7,30.00,SE,135,0.0,0.0,61,0.00,CLR,,1.91,WeatherDisplay:10.37,2013-03-09 03:09:00,
2013-03-08 19:14:00,40.6,28.6,30.00,SE,135,3.5,3.5,62,0.00,CLR,,1.91,WeatherDisplay:10.37,2013-03-09 03:14:00,
2013-03-08 19:19:00,40.3,28.7,30.00,SE,135,3.5,3.5,63,0.00,CLR,,1.91,WeatherDisplay:10.37,2013-03-09 03:19:00,
2013-03-08 19:24:00,40.1,28.9,30.01,SE,135,0.0,0.0,64,0.00,CLR,,1.91,WeatherDisplay:10.37,2013-03-09 03:24:00,
2013-03-08 19:29:00,39.7,28.5,30.01,SW,225,0.0,0.0,64,0.00,CLR,,1.91,WeatherDisplay:10.37,2013-03-09 03:29:00,
2013-03-08 19:34:00,39.4,28.2,30.02,SW,225,0.0,0.0,64,0.00,CLR,,1.91,WeatherDisplay:10.37,2013-03-09 03:34:00,
2013-03-08 19:39:00,39.0,28.2,30.02,SW,225,0.0,0.0,65,0.00,CLR,,1.91,WeatherDisplay:10.37,2013-03-09 03:39:00,
2013-03-08 19:44:00,38.8,28.1,30.02,SW,225,0.0,0.0,65,0.00,CLR,,1.91,WeatherDisplay:10.37,2013-03-09 03:44:00,
2013-03-08 19:49:00,38.3,27.9,30.02,SW,225,0.0,0.0,66,0.00,CLR,,1.91,WeatherDisplay:10.37,2013-03-09 03:49:00,
2013-03-08 19:54:00,38.1,27.8,30.02,SW,225,0.0,0.0,66,0.00,CLR,,1.91,WeatherDisplay:10.37,2013-03-09 03:54:00,
2013-03-08 19:59:00,37.6,27.6,30.03,SW,225,0.0,0.0,67,0.00,CLR,,1.91,WeatherDisplay:10.37,2013-03-09 03:59:00,
2013-03-08 20:04:00,37.2,27.6,30.03,SW,225,0.0,0.0,68,0.00,CLR,,1.91,WeatherDisplay:10.37,2013-03-09 04:04:00,
2013-03-08 20:09:00,37.2,27.6,30.03,SW,225,0.0,0.0,68,0.00,CLR,,1.91,WeatherDisplay:10.37,2013-03-09 04:09:00,
2013-03-08 20:14:00,36.7,27.1,30.03,WNW,292,3.5,3.5,68,0.00,CLR,,1.91,WeatherDisplay:10.37,2013-03-09 04:14:00,
2013-03-08 20:19:00,36.3,27.1,30.03,WNW,292,0.0,0.0,69,0.00,CLR,,1.91,WeatherDisplay:10.37,2013-03-09 04:19:00,
2013-03-08 20:24:00,36.0,27.1,30.04,WNW,292,0.0,0.0,70,0.00,CLR,,1.91,WeatherDisplay:10.37,2013-03-09 04:24:00,
2013-03-08 20:29:00,35.8,26.9,30.04,WNW,292,0.0,0.0,70,0.00,CLR,,1.91,WeatherDisplay:10.37,2013-03-09 04:29:00,
2013-03-08 20:34:00,35.4,26.6,30.04,WNW,292,0.0,0.0,70,0.00,CLR,,1.91,WeatherDisplay:10.37,2013-03-09 04:34:00,
2013-03-08 20:39:00,35.4,26.9,30.04,WNW,292,0.0,0.0,71,0.00,CLR,,1.91,WeatherDisplay:10.37,2013-03-09 04:39:00,
2013-03-08 20:44:00,35.2,26.8,30.05,WNW,292,0.0,0.0,71,0.00,CLR,,1.91,WeatherDisplay:10.37,2013-03-09 04:44:00,
2013-03-08 20:49:00,34.9,26.4,30.05,WNW,292,0.0,0.0,71,0.00,CLR,,1.91,WeatherDisplay:10.37,2013-03-09 04:49:00,
2013-03-08 20:54:00,34.7,26.6,30.05,WNW,292,0.0,0.0,72,0.00,CLR,,1.91,WeatherDisplay:10.37,2013-03-09 04:54:00,
2013-03-08 20:59:00,34.3,26.2,30.06,West,270,0.0,0.0,72,0.00,CLR,,1.91,WeatherDisplay:10.37,2013-03-09 04:59:00,
2013-03-08 21:00:00,34.3,26.2,30.06,West,270,0.0,0.0,72,0.00,CLR,,1.91,WeatherDisplay:10.37,2013-03-09 05:00:00,
2013-03-08 21:05:00,34.3,26.6,30.06,South,180,1.1,1.1,73,0.00,CLR,,1.91,WeatherDisplay:10.37,2013-03-09 05:05:00,
2013-03-08 21:10:00,34.3,26.6,30.06,South,180,0.0,0.0,73,0.00,CLR,,1.91,WeatherDisplay:10.37,2013-03-09 05:10:00,
2013-03-08 21:15:00,34.3,26.9,30.06,South,180,0.0,0.0,74,0.00,CLR,,1.91,WeatherDisplay:10.37,2013-03-09 05:15:00,
2013-03-08 21:20:00,34.3,26.9,30.06,South,180,0.0,0.0,74,0.00,CLR,,1.91,WeatherDisplay:10.37,2013-03-09 05:20:00,
2013-03-08 21:25:00,34.0,26.6,30.07,WSW,248,0.0,0.0,74,0.00,CLR,,1.91,WeatherDisplay:10.37,2013-03-09 05:25:00,
2013-03-08 21:30:00,33.6,26.2,30.07,WSW,248,0.0,0.0,74,0.00,CLR,,1.91,WeatherDisplay:10.37,2013-03-09 05:30:00,
2013-03-08 21:35:00,33.6,26.5,30.07,WSW,248,0.0,0.0,75,0.00,CLR,,1.91,WeatherDisplay:10.37,2013-03-09 05:35:00,
2013-03-08 21:40:00,33.4,26.4,30.07,WSW,248,0.0,0.0,75,0.00,CLR,,1.91,WeatherDisplay:10.37,2013-03-09 05:40:00,
2013-03-08 21:45:00,33.3,26.2,30.07,WSW,248,0.0,0.0,75,0.00,CLR,,1.91,WeatherDisplay:10.37,2013-03-09 05:45:00,
2013-03-08 21:50:00,32.9,25.8,30.07,WSW,248,0.0,0.0,75,0.00,CLR,,1.91,WeatherDisplay:10.37,2013-03-09 05:50:00,
2013-03-08 21:55:00,32.7,25.7,30.07,WSW,248,0.0,0.0,75,0.00,CLR,,1.91,WeatherDisplay:10.37,2013-03-09 05:55:00,
2013-03-08 22:00:00,32.7,26.0,30.08,WSW,248,0.0,0.0,76,0.00,CLR,,1.91,WeatherDisplay:10.37,2013-03-09 06:00:00,
2013-03-08 22:05:00,32.5,25.8,30.08,WSW,248,0.0,0.0,76,0.00,CLR,,1.91,WeatherDisplay:10.37,2013-03-09 06:05:00,
2013-03-08 22:10:00,32.2,25.5,30.08,WSW,248,0.0,0.0,76,0.00,CLR,,1.91,WeatherDisplay:10.37,2013-03-09 06:10:00,
2013-03-08 22:15:00,32.2,25.5,30.09,WSW,248,0.0,0.0,76,0.00,CLR,,1.91,WeatherDisplay:10.37,2013-03-09 06:15:00,
2013-03-08 22:20:00,32.0,25.3,30.09,WSW,248,0.0,0.0,76,0.00,CLR,,1.91,WeatherDisplay:10.37,2013-03-09 06:20:00,
2013-03-08 22:25:00,31.8,25.1,30.09,WSW,248,0.0,0.0,76,0.00,CLR,,1.91,WeatherDisplay:10.37,2013-03-09 06:25:00,
2013-03-08 22:30:00,31.8,25.1,30.09,WSW,248,0.0,0.0,76,0.00,CLR,,1.91,WeatherDisplay:10.37,2013-03-09 06:30:00,
2013-03-08 22:35:00,31.6,24.9,30.09,WSW,248,0.0,0.0,76,0.00,CLR,,1.91,WeatherDisplay:10.37,2013-03-09 06:35:00,
2013-03-08 22:40:00,31.6,25.3,30.09,WSW,248,0.0,0.0,77,0.00,CLR,,1.91,WeatherDisplay:10.37,2013-03-09 06:40:00,
2013-03-08 22:45:00,31.6,25.3,30.09,WSW,248,0.0,0.0,77,0.00,CLR,,1.91,WeatherDisplay:10.37,2013-03-09 06:45:00,
2013-03-08 22:50:00,31.6,25.3,30.09,WSW,248,0.0,0.0,77,0.00,CLR,,1.91,WeatherDisplay:10.37,2013-03-09 06:50:00,
2013-03-08 22:55:00,31.3,24.9,30.10,WSW,248,0.0,0.0,77,0.00,CLR,,1.91,WeatherDisplay:10.37,2013-03-09 06:55:00,
2013-03-08 23:00:00,31.1,24.7,30.10,WSW,248,0.0,0.0,77,0.00,CLR,,1.91,WeatherDisplay:10.37,2013-03-09 07:00:00,
2013-03-08 23:05:00,30.7,24.7,30.10,WSW,248,0.0,0.0,78,0.00,CLR,,1.91,WeatherDisplay:10.37,2013-03-09 07:05:00,
2013-03-08 23:10:00,30.7,24.7,30.10,WSW,248,0.0,0.0,78,0.00,CLR,,1.91,WeatherDisplay:10.37,2013-03-09 07:10:00,
2013-03-08 23:15:00,30.6,24.5,30.10,WSW,248,0.0,0.0,78,0.00,CLR,,1.91,WeatherDisplay:10.37,2013-03-09 07:15:00,
2013-03-08 23:20:00,30.4,24.3,30.10,WSW,248,0.0,0.0,78,0.00,CLR,,1.91,WeatherDisplay:10.37,2013-03-09 07:20:00,
2013-03-08 23:25:00,30.2,24.2,30.11,WSW,248,0.0,0.0,78,0.00,CLR,,1.91,WeatherDisplay:10.37,2013-03-09 07:25:00,
2013-03-08 23:30:00,30.0,24.0,30.11,WSW,248,0.0,0.0,78,0.00,CLR,,1.91,WeatherDisplay:10.37,2013-03-09 07:30:00,
2013-03-08 23:35:00,30.0,24.0,30.11,WSW,248,0.0,0.0,78,0.00,CLR,,1.91,WeatherDisplay:10.37,2013-03-09 07:35:00,
2013-03-08 23:40:00,29.8,23.8,30.11,WSW,248,0.0,0.0,78,0.00,CLR,,1.91,WeatherDisplay:10.37,2013-03-09 07:40:00,
2013-03-08 23:45:00,29.8,23.8,30.11,WSW,248,0.0,0.0,78,0.00,CLR,,1.91,WeatherDisplay:10.37,2013-03-09 07:45:00,
2013-03-08 23:50:00,29.5,23.5,30.11,WSW,248,0.0,0.0,78,0.00,CLR,,1.91,WeatherDisplay:10.37,2013-03-09 07:50:00,
2013-03-08 23:55:00,29.3,23.6,30.11,WSW,248,0.0,0.0,79,0.00,CLR,,1.91,WeatherDisplay:10.37,2013-03-09 07:55:00,